Home > Weather > Lübbecke > Past weeks

Flag for Germany Weather for the Past 2 Weeks in Lübbecke, North Rhine-Westphalia, Germany

Now
45 °F

Passing clouds.


Feels Like: 37 °F
Forecast: 41 / 47 °F
Wind: 16 mph from Southwest

Location: Bueckeburg

Current Time: Feb 7, 2016 at 11:08:59 PM

Latest Report: Feb 7, 2016 at 10:20 PM


Visibility: N/A

Pressure: 29.59 "Hg

Humidity: 66%

Dew point: 34 °F

Location of LübbeckeLocation

Historic Weather in Lübbecke — Graph

°F

Lübbecke Temperature Yesterday

Maximum temperature yesterday: 54 °F (at 3:20 PM)
Minimum temperature yesterday: 46 °F (at 6:20 AM)
Average temperature yesterday: 50 °F

High & Low Weather Summary for the Past Weeks

 TemperatureHumidityPressure
High54 °F (Jan 25, 1:20 PM)100% (Jan 24, 2:20 AM)30.51 "Hg (Jan 24, 2:20 AM)
Low36 °F (Jan 30, 9:20 PM)57% (Jan 28, 1:20 PM)29.45 "Hg (Feb 7, 9:20 AM)
Average46 °F83%29.98 "Hg
* Reported Jan 23 9:20 PM — Feb 7 9:20 PM, Lübbecke, Weather by CustomWeather, © 2016

Note: Actual official high and low records may vary slightly from our data, if they occured in-between our weather recording intervals... More about our weather records

Advertising

Lübbecke Weather History for the Previous 24 Hours

 ConditionsComfort  
Time TempWeatherWind HumidityBarometerVisibility
9:20 PM
Sun, Feb 7
45 °FPassing clouds.15 mph66%29.59 "HgN/A
8:20 PM46 °FPassing clouds.14 mph62%29.59 "HgN/A
7:20 PM46 °FPassing clouds.14 mph66%29.59 "HgN/A
6:20 PM48 °FPartly cloudy.16 mph66%29.56 "HgN/A
5:20 PM48 °FPartly sunny.21 mph66%29.53 "HgN/A
4:20 PM48 °FPartly sunny.15 mph76%29.53 "HgN/A
3:20 PM48 °FPartly sunny.16 mph76%29.53 "HgN/A
2:20 PM50 °FBroken clouds.15 mph76%29.50 "HgN/A
1:20 PM48 °FPartly sunny.14 mph82%29.50 "HgN/A
12:20 PM50 °FSprinkles. Broken clouds.21 mph76%29.50 "HgN/A
11:20 AM54 °FPartly sunny.18 mph58%29.47 "HgN/A
10:20 AM52 °FBroken clouds.20 mph62%29.45 "HgN/A
9:20 AM52 °FBroken clouds.18 mph58%29.45 "HgN/A
8:20 AM50 °FPartly sunny.23 mph62%29.47 "HgN/A
7:20 AM50 °FPartly cloudy.21 mph62%29.47 "HgN/A
6:20 AM50 °FPassing clouds.23 mph62%29.47 "HgN/A
5:20 AM50 °FPassing clouds.17 mph62%29.50 "HgN/A
4:20 AM50 °FPassing clouds.17 mph62%29.50 "HgN/A
3:20 AM50 °FCool.18 mph62%29.53 "HgN/A
2:20 AM50 °FCool.20 mph67%29.56 "HgN/A
1:20 AM48 °FCool.16 mph66%29.59 "HgN/A
12:20 AM50 °FPassing clouds.18 mph67%29.62 "HgN/A
11:20 PM
Sat, Feb 6
50 °FPassing clouds.15 mph67%29.62 "HgN/A
Weather by CustomWeather, © 2016

See weather overviewHow to use our weather pages